Terminal Aerodrome Forecast
Issued by NWS

Home | Current Version | Previous Version | Graphics & Text | Print | Product List | Glossary On
Versions: 1 2 3 4 5 6 7 8 9 10 11 12 13 14 15 16 17 18 19 20 21 22 23 24 25 26 27 28 29 30
000
FTUS45 KGGW 261700
TAFGDV
TAF
KGDV 261728Z 2618/2718 17008KT P6SM VCSH SCT040 BKN200
      TEMPO 2619/2622 VRB20G30KT 4SM -TSRA SCT040CB BKN150
     FM270600 VRB06KT P6SM VCSH SCT050 BKN150
      AMD LTD TO CLD VIS AND WIND=

USA.gov is the U.S. government's official web portal to all federal, state and local government web resources and services.